M I D A S
Marine Information and Data Acquisition System
Tripno 1856 of the Zeeleeuw from 2010-04-07 09:01:31 to 2010-04-07 14:18:54
Back to CruiseResearch ActivitiesStationsMapUnderway DataData graphs

EquipmentUnitsComment
TimeDGPSUTC
LatitudeDGPSDM.mWGS84
LongitudeDGPSDM.mWGS84
TemperatureSBE03/SBE38deg celciusITS90
ConductivitySBE21S/mITS90
SalinitySBE21 Practical Salinity Units
ChlorophylAChelsea fluorimeterg/lCalibrated in Aceton
Missing or incorrect values are displayed as -999
Sea surface data collected by the RV Zeeleeuw from 2010-04-07 06:36:08 to 2010-04-07 14:20:56
                                                                                    Next 1000 lines
Time Latitude Longitude Temperature Conductivity Salinity ChlorophylA
2010-04-07 06:36:18 51°13.666 2°55.96 14.1447 -999 -999 -999
2010-04-07 06:36:23 51°13.665 2°55.96 14.1454 -999 -999 -999
2010-04-07 06:36:28 51°13.665 2°55.96 14.1454 -999 -999 -999
2010-04-07 06:36:33 51°13.665 2°55.96 14.1461 -999 -999 -999
2010-04-07 06:36:38 51°13.666 2°55.961 14.1463 -999 -999 -999
2010-04-07 06:36:43 51°13.666 2°55.961 14.1465 -999 -999 -999
2010-04-07 06:36:48 51°13.666 2°55.961 14.1469 -999 -999 -999
2010-04-07 06:36:53 51°13.666 2°55.961 14.1476 -999 -999 -999
2010-04-07 06:36:58 51°13.666 2°55.961 14.1479 -999 -999 -999
2010-04-07 06:37:03 51°13.666 2°55.961 14.1486 -999 -999 -999
2010-04-07 06:37:08 51°13.666 2°55.961 14.1487 -999 -999 -999
2010-04-07 06:37:13 51°13.666 2°55.961 14.1491 -999 -999 -999
2010-04-07 06:37:18 51°13.666 2°55.961 14.1497 -999 -999 -999
2010-04-07 06:37:23 51°13.666 2°55.961 14.15 -999 -999 -999
2010-04-07 06:37:28 51°13.666 2°55.961 14.1505 -999 -999 -999
2010-04-07 06:37:33 51°13.666 2°55.961 14.151 -999 -999 -999
2010-04-07 06:37:38 51°13.666 2°55.961 14.1513 -999 -999 -999
2010-04-07 06:37:43 51°13.666 2°55.961 14.1516 -999 -999 -999
2010-04-07 06:37:48 51°13.667 2°55.961 14.1518 -999 -999 -999
2010-04-07 06:37:53 51°13.666 2°55.961 14.1526 -999 -999 -999
2010-04-07 06:37:59 51°13.666 2°55.961 14.153 -999 -999 -999
2010-04-07 06:38:03 51°13.666 2°55.961 14.1533 -999 -999 -999
2010-04-07 06:38:09 51°13.666 2°55.961 14.1537 -999 -999 -999
2010-04-07 06:38:13 51°13.666 2°55.961 14.1541 -999 -999 -999
2010-04-07 06:38:19 51°13.666 2°55.961 14.1545 -999 -999 -999
2010-04-07 06:38:23 51°13.666 2°55.961 14.1548 -999 -999 -999
2010-04-07 06:38:28 51°13.667 2°55.961 14.1554 -999 -999 -999
2010-04-07 06:38:33 51°13.667 2°55.961 14.1559 -999 -999 -999
2010-04-07 06:38:39 51°13.667 2°55.961 14.1561 -999 -999 -999
2010-04-07 06:38:44 51°13.667 2°55.96 14.1567 -999 -999 -999
2010-04-07 06:38:49 51°13.667 2°55.96 14.157 -999 -999 -999
2010-04-07 06:38:53 51°13.667 2°55.961 14.1572 -999 -999 -999
2010-04-07 06:38:59 51°13.667 2°55.961 14.1575 -999 -999 -999
2010-04-07 06:39:04 51°13.667 2°55.96 14.158 -999 -999 -999
2010-04-07 06:39:08 51°13.667 2°55.96 14.1587 -999 -999 -999
2010-04-07 06:39:14 51°13.667 2°55.961 14.1588 -999 -999 -999
2010-04-07 06:39:19 51°13.667 2°55.961 14.1593 -999 -999 -999
2010-04-07 06:39:24 51°13.667 2°55.961 14.16 -999 -999 -999
2010-04-07 06:39:28 51°13.667 2°55.961 14.1601 -999 -999 -999
2010-04-07 06:39:34 51°13.667 2°55.961 14.1607 -999 -999 -999
2010-04-07 06:39:38 51°13.667 2°55.961 14.161 -999 -999 -999
2010-04-07 06:39:44 51°13.667 2°55.961 14.1614 -999 -999 -999
2010-04-07 06:39:48 51°13.667 2°55.961 14.1619 -999 -999 -999
2010-04-07 06:39:54 51°13.667 2°55.961 14.1622 -999 -999 -999
2010-04-07 06:39:58 51°13.667 2°55.961 14.1627 -999 -999 -999
2010-04-07 06:40:03 51°13.667 2°55.961 14.1631 -999 -999 -999
2010-04-07 06:40:09 51°13.665 2°55.961 14.1636 -999 -999 -999
2010-04-07 06:40:14 51°13.664 2°55.96 14.164 -999 -999 -999
2010-04-07 06:40:18 51°13.664 2°55.96 14.1644 -999 -999 -999
2010-04-07 06:40:23 51°13.663 2°55.96 14.1649 -999 -999 -999
2010-04-07 06:40:29 51°13.663 2°55.961 14.1651 -999 -999 -999
2010-04-07 06:40:34 51°13.663 2°55.961 14.1656 -999 -999 -999
2010-04-07 06:40:38 51°13.663 2°55.961 14.1661 -999 -999 -999
2010-04-07 06:40:43 51°13.663 2°55.961 14.1666 -999 -999 -999
2010-04-07 06:40:49 51°13.663 2°55.961 14.1673 -999 -999 -999
2010-04-07 06:40:53 51°13.663 2°55.961 14.1674 -999 -999 -999
2010-04-07 06:40:59 51°13.663 2°55.961 14.1677 -999 -999 -999
2010-04-07 06:41:04 51°13.662 2°55.961 14.1685 -999 -999 -999
2010-04-07 06:41:09 51°13.662 2°55.961 14.1688 -999 -999 -999
2010-04-07 06:41:13 51°13.662 2°55.96 14.169 -999 -999 -999
2010-04-07 06:41:19 51°13.662 2°55.961 14.1695 -999 -999 -999
2010-04-07 06:41:24 51°13.662 2°55.961 14.17 -999 -999 -999
2010-04-07 06:41:28 51°13.662 2°55.961 14.1704 -999 -999 -999
2010-04-07 06:41:34 51°13.662 2°55.961 14.1711 -999 -999 -999
2010-04-07 06:41:39 51°13.662 2°55.961 14.1715 -999 -999 -999
2010-04-07 06:41:44 51°13.662 2°55.961 14.1717 -999 -999 -999
2010-04-07 06:41:48 51°13.662 2°55.961 14.1725 -999 -999 -999
2010-04-07 06:41:54 51°13.662 2°55.96 14.1727 -999 -999 -999
2010-04-07 06:41:58 51°13.662 2°55.96 14.1732 -999 -999 -999
2010-04-07 06:42:04 51°13.662 2°55.96 14.1731 -999 -999 -999
2010-04-07 06:42:08 51°13.662 2°55.96 14.1742 -999 -999 -999
2010-04-07 06:42:14 51°13.662 2°55.96 14.1745 -999 -999 -999
2010-04-07 06:42:18 51°13.662 2°55.96 14.175 -999 -999 -999
2010-04-07 06:42:23 51°13.662 2°55.96 14.1752 -999 -999 -999
2010-04-07 06:42:28 51°13.662 2°55.96 14.1757 -999 -999 -999
2010-04-07 06:42:33 51°13.662 2°55.96 14.1762 -999 -999 -999
2010-04-07 06:42:38 51°13.662 2°55.96 14.1765 -999 -999 -999
2010-04-07 06:42:43 51°13.662 2°55.96 14.177 -999 -999 -999
2010-04-07 06:42:49 51°13.662 2°55.96 14.1775 -999 -999 -999
2010-04-07 06:42:54 51°13.662 2°55.96 14.1779 -999 -999 -999
2010-04-07 06:42:58 51°13.662 2°55.96 14.1785 -999 -999 -999
2010-04-07 06:43:03 51°13.662 2°55.96 14.1785 -999 -999 -999
2010-04-07 06:43:09 51°13.662 2°55.96 14.1793 -999 -999 -999
2010-04-07 06:43:13 51°13.662 2°55.96 14.1797 -999 -999 -999
2010-04-07 06:43:19 51°13.662 2°55.96 14.1803 -999 -999 -999
2010-04-07 06:43:24 51°13.662 2°55.961 14.1806 -999 -999 -999
2010-04-07 06:43:29 51°13.662 2°55.961 14.1806 -999 -999 -999
2010-04-07 06:43:33 51°13.662 2°55.961 14.1816 -999 -999 -999
2010-04-07 06:43:39 51°13.662 2°55.961 14.1821 -999 -999 -999
2010-04-07 06:43:44 51°13.662 2°55.96 14.1826 -999 -999 -999
2010-04-07 06:43:49 51°13.662 2°55.96 14.1829 -999 -999 -999
2010-04-07 06:43:53 51°13.662 2°55.96 14.1831 -999 -999 -999
2010-04-07 06:43:59 51°13.662 2°55.961 14.1835 -999 -999 -999
2010-04-07 06:44:04 51°13.662 2°55.961 14.1844 -999 -999 -999
2010-04-07 06:44:08 51°13.662 2°55.961 14.1843 -999 -999 -999
2010-04-07 06:44:14 51°13.662 2°55.961 14.185 -999 -999 -999
2010-04-07 06:44:16 51°13.662 2°55.961 14.1857 -999 -999 -999
2010-04-07 06:44:23 51°13.661 2°55.964 14.1859 -999 -999 -999
2010-04-07 06:44:28 51°13.66 2°55.964 14.1866 -999 -999 -999
2010-04-07 06:44:34 51°13.66 2°55.963 14.1873 -999 -999 -999
2010-04-07 06:44:38 51°13.66 2°55.962 14.1874 -999 -999 -999
2010-04-07 06:44:43 51°13.659 2°55.961 14.1879 -999 -999 -999
2010-04-07 06:44:49 51°13.659 2°55.961 14.1884 -999 -999 -999
2010-04-07 06:44:53 51°13.659 2°55.96 14.1888 -999 -999 -999
2010-04-07 06:44:59 51°13.659 2°55.96 14.1894 -999 -999 -999
2010-04-07 06:45:03 51°13.659 2°55.959 14.1898 -999 -999 -999
2010-04-07 06:45:09 51°13.66 2°55.959 14.1902 -999 -999 -999
2010-04-07 06:45:13 51°13.66 2°55.959 14.1905 -999 -999 -999
2010-04-07 06:45:19 51°13.66 2°55.959 14.1909 -999 -999 -999
2010-04-07 06:45:23 51°13.66 2°55.959 14.1913 -999 -999 -999
2010-04-07 06:45:29 51°13.66 2°55.959 14.1918 -999 -999 -999
2010-04-07 06:45:33 51°13.66 2°55.959 14.1926 -999 -999 -999
2010-04-07 06:45:39 51°13.66 2°55.959 14.1928 -999 -999 -999
2010-04-07 06:45:44 51°13.66 2°55.959 14.1934 -999 -999 -999
2010-04-07 06:45:49 51°13.66 2°55.959 14.1939 -999 -999 -999
2010-04-07 06:45:53 51°13.66 2°55.959 14.1942 -999 -999 -999
2010-04-07 06:45:59 51°13.66 2°55.959 14.195 -999 -999 -999
2010-04-07 06:46:04 51°13.661 2°55.959 14.1954 -999 -999 -999
2010-04-07 06:46:08 51°13.661 2°55.96 14.1958 -999 -999 -999
2010-04-07 06:46:14 51°13.66 2°55.96 14.1964 -999 -999 -999
2010-04-07 06:46:19 51°13.66 2°55.96 14.1969 -999 -999 -999
2010-04-07 06:46:24 51°13.66 2°55.96 14.1972 -999 -999 -999
2010-04-07 06:46:28 51°13.66 2°55.96 14.1975 -999 -999 -999
2010-04-07 06:46:34 51°13.66 2°55.96 14.1981 -999 -999 -999
2010-04-07 06:46:38 51°13.66 2°55.96 14.1987 -999 -999 -999
2010-04-07 06:46:43 51°13.66 2°55.961 14.1994 -999 -999 -999
2010-04-07 06:46:48 51°13.659 2°55.961 14.1994 -999 -999 -999
2010-04-07 06:46:54 51°13.658 2°55.961 14.2002 -999 -999 -999
2010-04-07 06:46:58 51°13.658 2°55.962 14.2003 -999 -999 -999
2010-04-07 06:47:03 51°13.658 2°55.962 14.2012 -999 -999 -999
2010-04-07 06:47:08 51°13.658 2°55.962 14.2015 -999 -999 -999
2010-04-07 06:47:14 51°13.658 2°55.961 14.2018 -999 -999 -999
2010-04-07 06:47:18 51°13.658 2°55.961 14.2024 -999 -999 -999
2010-04-07 06:47:23 51°13.657 2°55.961 14.2029 -999 -999 -999
2010-04-07 06:47:29 51°13.658 2°55.961 14.2033 -999 -999 -999
2010-04-07 06:47:34 51°13.659 2°55.961 14.2039 -999 -999 -999
2010-04-07 06:47:38 51°13.659 2°55.961 14.2043 -999 -999 -999
2010-04-07 06:47:43 51°13.659 2°55.961 14.2047 -999 -999 -999
2010-04-07 06:47:49 51°13.659 2°55.961 14.2053 -999 -999 -999
2010-04-07 06:47:53 51°13.659 2°55.961 14.2057 -999 -999 -999
2010-04-07 06:47:59 51°13.659 2°55.961 14.2059 -999 -999 -999
2010-04-07 06:48:03 51°13.659 2°55.961 14.2071 -999 -999 -999
2010-04-07 06:48:09 51°13.659 2°55.961 14.2072 -999 -999 -999
2010-04-07 06:48:13 51°13.659 2°55.961 14.2077 -999 -999 -999
2010-04-07 06:48:19 51°13.659 2°55.96 14.2085 -999 -999 -999
2010-04-07 06:48:24 51°13.659 2°55.96 14.2083 -999 -999 -999
2010-04-07 06:48:29 51°13.659 2°55.96 14.2092 -999 -999 -999
2010-04-07 06:48:33 51°13.659 2°55.96 14.2094 -999 -999 -999
2010-04-07 06:48:39 51°13.659 2°55.96 14.2098 -999 -999 -999
2010-04-07 06:48:44 51°13.659 2°55.961 14.2104 -999 -999 -999
2010-04-07 06:48:48 51°13.659 2°55.961 14.2111 -999 -999 -999
2010-04-07 06:48:53 51°13.658 2°55.961 14.2112 -999 -999 -999
2010-04-07 06:48:59 51°13.659 2°55.961 14.212 -999 -999 -999
2010-04-07 06:49:04 51°13.658 2°55.961 14.2125 -999 -999 -999
2010-04-07 06:49:08 51°13.658 2°55.961 14.2127 -999 -999 -999
2010-04-07 06:49:13 51°13.658 2°55.961 14.2133 -999 -999 -999
2010-04-07 06:49:18 51°13.658 2°55.961 14.2136 -999 -999 -999
2010-04-07 06:49:23 51°13.658 2°55.961 14.2141 -999 -999 -999
2010-04-07 06:49:28 51°13.658 2°55.961 14.2148 -999 -999 -999
2010-04-07 06:49:33 51°13.658 2°55.961 14.2155 -999 -999 -999
2010-04-07 06:49:38 51°13.658 2°55.961 14.2157 -999 -999 -999
2010-04-07 06:49:43 51°13.658 2°55.961 14.2161 -999 -999 -999
2010-04-07 06:49:49 51°13.658 2°55.961 14.2166 -999 -999 -999
2010-04-07 06:49:53 51°13.658 2°55.961 14.2173 -999 -999 -999
2010-04-07 06:49:58 51°13.658 2°55.961 14.2178 -999 -999 -999
2010-04-07 06:50:03 51°13.66 2°55.961 14.2182 -999 -999 -999
2010-04-07 06:50:09 51°13.661 2°55.961 14.2193 -999 -999 -999
2010-04-07 06:50:14 51°13.662 2°55.962 14.2192 -999 -999 -999
2010-04-07 06:50:18 51°13.662 2°55.962 14.2198 -999 -999 -999
2010-04-07 06:50:23 51°13.662 2°55.962 14.2202 -999 -999 -999
2010-04-07 06:50:29 51°13.662 2°55.962 14.2203 -999 -999 -999
2010-04-07 06:50:33 51°13.662 2°55.962 14.221 -999 -999 -999
2010-04-07 06:50:39 51°13.662 2°55.962 14.2215 -999 -999 -999
2010-04-07 06:50:44 51°13.663 2°55.962 14.222 -999 -999 -999
2010-04-07 06:50:49 51°13.663 2°55.962 14.2229 -999 -999 -999
2010-04-07 06:50:53 51°13.663 2°55.962 14.2231 -999 -999 -999
2010-04-07 06:50:59 51°13.664 2°55.962 14.2233 -999 -999 -999
2010-04-07 06:51:04 51°13.664 2°55.962 14.2241 -999 -999 -999
2010-04-07 06:51:07 51°13.664 2°55.962 14.2246 -999 -999 -999
2010-04-07 06:51:14 51°13.664 2°55.961 14.2252 -999 -999 -999
2010-04-07 06:51:19 51°13.664 2°55.961 14.2256 -999 -999 -999
2010-04-07 06:51:23 51°13.663 2°55.961 14.2264 -999 -999 -999
2010-04-07 06:51:28 51°13.662 2°55.961 14.2263 -999 -999 -999
2010-04-07 06:51:33 51°13.662 2°55.96 14.2271 -999 -999 -999
2010-04-07 06:51:38 51°13.662 2°55.96 14.2278 -999 -999 -999
2010-04-07 06:51:43 51°13.662 2°55.96 14.2281 -999 -999 -999
2010-04-07 06:51:48 51°13.662 2°55.96 14.2285 -999 -999 -999
2010-04-07 06:51:53 51°13.662 2°55.96 14.2288 -999 -999 -999
2010-04-07 06:51:58 51°13.662 2°55.96 14.2294 -999 -999 -999
2010-04-07 06:52:03 51°13.662 2°55.96 14.2305 -999 -999 -999
2010-04-07 06:52:07 51°13.662 2°55.96 14.2305 -999 -999 -999
2010-04-07 06:52:13 51°13.662 2°55.96 14.2312 -999 -999 -999
2010-04-07 06:52:17 51°13.662 2°55.96 14.2319 -999 -999 -999
2010-04-07 06:52:23 51°13.662 2°55.96 14.2321 -999 -999 -999
2010-04-07 06:52:27 51°13.662 2°55.96 14.2324 -999 -999 -999
2010-04-07 06:52:33 51°13.662 2°55.96 14.2331 -999 -999 -999
2010-04-07 06:52:37 51°13.662 2°55.96 14.2336 -999 -999 -999
2010-04-07 06:52:43 51°13.662 2°55.959 14.2341 -999 -999 -999
2010-04-07 06:52:47 51°13.662 2°55.96 14.2345 -999 -999 -999
2010-04-07 06:52:53 51°13.662 2°55.959 14.235 -999 -999 -999
2010-04-07 06:52:57 51°13.662 2°55.96 14.2356 -999 -999 -999
2010-04-07 06:53:03 51°13.662 2°55.959 14.2362 -999 -999 -999
2010-04-07 06:53:09 51°13.662 2°55.96 14.2368 -999 -999 -999
2010-04-07 06:53:13 51°13.662 2°55.96 14.2368 -999 -999 -999
2010-04-07 06:53:18 51°13.662 2°55.96 14.2376 -999 -999 -999
2010-04-07 06:53:23 51°13.662 2°55.96 14.2379 -999 -999 -999
2010-04-07 06:53:29 51°13.662 2°55.96 14.2384 -999 -999 -999
2010-04-07 06:53:33 51°13.662 2°55.96 14.239 -999 -999 -999
2010-04-07 06:53:37 51°13.662 2°55.96 14.2393 -999 -999 -999
2010-04-07 06:53:43 51°13.662 2°55.96 14.2401 -999 -999 -999
2010-04-07 06:53:47 51°13.661 2°55.959 14.2404 -999 -999 -999
2010-04-07 06:53:53 51°13.661 2°55.959 14.2412 -999 -999 -999
2010-04-07 06:53:59 51°13.661 2°55.959 14.2417 -999 -999 -999
2010-04-07 06:54:03 51°13.661 2°55.959 14.2419 -999 -999 -999
2010-04-07 06:54:07 51°13.661 2°55.959 14.2428 -999 -999 -999
2010-04-07 06:54:13 51°13.661 2°55.959 14.243 -999 -999 -999
2010-04-07 06:54:19 51°13.661 2°55.959 14.2436 -999 -999 -999
2010-04-07 06:54:23 51°13.661 2°55.959 14.2437 -999 -999 -999
2010-04-07 06:54:27 51°13.661 2°55.959 14.2444 -999 -999 -999
2010-04-07 06:54:33 51°13.661 2°55.959 14.2451 -999 -999 -999
2010-04-07 06:54:37 51°13.661 2°55.959 14.2455 -999 -999 -999
2010-04-07 06:54:43 51°13.661 2°55.959 14.2463 -999 -999 -999
2010-04-07 06:54:47 51°13.661 2°55.959 14.2462 -999 -999 -999
2010-04-07 06:54:53 51°13.661 2°55.959 14.2469 -999 -999 -999
2010-04-07 06:54:57 51°13.661 2°55.959 14.2476 -999 -999 -999
2010-04-07 06:55:03 51°13.661 2°55.959 14.248 -999 -999 -999
2010-04-07 06:55:07 51°13.661 2°55.959 14.2486 -999 -999 -999
2010-04-07 06:55:13 51°13.661 2°55.959 14.2491 -999 -999 -999
2010-04-07 06:55:17 51°13.661 2°55.959 14.2495 -999 -999 -999
2010-04-07 06:55:23 51°13.661 2°55.959 14.2503 -999 -999 -999
2010-04-07 06:55:27 51°13.661 2°55.959 14.2506 -999 -999 -999
2010-04-07 06:55:33 51°13.661 2°55.959 14.2513 -999 -999 -999
2010-04-07 06:55:37 51°13.661 2°55.959 14.2518 -999 -999 -999
2010-04-07 06:55:43 51°13.661 2°55.959 14.2522 -999 -999 -999
2010-04-07 06:55:47 51°13.661 2°55.959 14.2528 -999 -999 -999
2010-04-07 06:55:53 51°13.661 2°55.959 14.2528 -999 -999 -999
2010-04-07 06:55:57 51°13.661 2°55.959 14.2535 -999 -999 -999
2010-04-07 06:56:03 51°13.661 2°55.959 14.2541 -999 -999 -999
2010-04-07 06:56:07 51°13.661 2°55.959 14.2544 -999 -999 -999
2010-04-07 06:56:13 51°13.661 2°55.959 14.2554 -999 -999 -999
2010-04-07 06:56:17 51°13.661 2°55.959 14.2557 -999 -999 -999
2010-04-07 06:56:23 51°13.661 2°55.959 14.2563 -999 -999 -999
2010-04-07 06:56:27 51°13.661 2°55.959 14.2567 -999 -999 -999
2010-04-07 06:56:33 51°13.661 2°55.96 14.2572 -999 -999 -999
2010-04-07 06:56:37 51°13.661 2°55.96 14.2576 -999 -999 -999
2010-04-07 06:56:43 51°13.661 2°55.96 14.2585 -999 -999 -999
2010-04-07 06:56:47 51°13.661 2°55.96 14.2587 -999 -999 -999
2010-04-07 06:56:53 51°13.661 2°55.959 14.2595 -999 -999 -999
2010-04-07 06:56:59 51°13.661 2°55.96 14.2597 -999 -999 -999
2010-04-07 06:57:03 51°13.661 2°55.96 14.2603 -999 -999 -999
2010-04-07 06:57:07 51°13.661 2°55.96 14.2607 -999 -999 -999
2010-04-07 06:57:13 51°13.661 2°55.959 14.2614 -999 -999 -999
2010-04-07 06:57:19 51°13.661 2°55.959 14.2619 -999 -999 -999
2010-04-07 06:57:23 51°13.661 2°55.96 14.2622 -999 -999 -999
2010-04-07 06:57:27 51°13.661 2°55.96 14.2629 -999 -999 -999
2010-04-07 06:57:33 51°13.661 2°55.96 14.2634 -999 -999 -999
2010-04-07 06:57:37 51°13.661 2°55.96 14.2643 -999 -999 -999
2010-04-07 06:57:43 51°13.661 2°55.96 14.2644 -999 -999 -999
2010-04-07 06:57:47 51°13.661 2°55.96 14.2651 -999 -999 -999
2010-04-07 06:57:53 51°13.661 2°55.96 14.2656 -999 -999 -999
2010-04-07 06:57:57 51°13.661 2°55.96 14.2662 -999 -999 -999
2010-04-07 06:58:03 51°13.661 2°55.96 14.2664 -999 -999 -999
2010-04-07 06:58:07 51°13.661 2°55.96 14.2673 -999 -999 -999
2010-04-07 06:58:13 51°13.661 2°55.96 14.2677 -999 -999 -999
2010-04-07 06:58:17 51°13.661 2°55.96 14.2679 -999 -999 -999
2010-04-07 06:58:23 51°13.661 2°55.96 14.2687 -999 -999 -999
2010-04-07 06:58:27 51°13.661 2°55.96 14.2692 -999 -999 -999
2010-04-07 06:58:33 51°13.661 2°55.96 14.2699 -999 -999 -999
2010-04-07 06:58:37 51°13.661 2°55.96 14.2702 -999 -999 -999
2010-04-07 06:58:43 51°13.661 2°55.96 14.271 -999 -999 -999
2010-04-07 06:58:49 51°13.661 2°55.96 14.2717 -999 -999 -999
2010-04-07 06:58:53 51°13.661 2°55.96 14.2718 -999 -999 -999
2010-04-07 06:58:57 51°13.661 2°55.96 14.2727 -999 -999 -999
2010-04-07 06:59:03 51°13.661 2°55.96 14.2732 -999 -999 -999
2010-04-07 06:59:09 51°13.661 2°55.96 14.2736 -999 -999 -999
2010-04-07 06:59:13 51°13.661 2°55.96 14.2738 -999 -999 -999
2010-04-07 06:59:17 51°13.661 2°55.96 14.2743 -999 -999 -999
2010-04-07 06:59:23 51°13.661 2°55.96 14.2751 -999 -999 -999
2010-04-07 06:59:27 51°13.661 2°55.96 14.2754 -999 -999 -999
2010-04-07 06:59:33 51°13.661 2°55.96 14.2761 -999 -999 -999
2010-04-07 06:59:39 51°13.661 2°55.961 14.2767 -999 -999 -999
2010-04-07 06:59:43 51°13.661 2°55.961 14.2773 -999 -999 -999
2010-04-07 06:59:47 51°13.661 2°55.961 14.2776 -999 -999 -999
2010-04-07 06:59:53 51°13.661 2°55.96 14.2784 -999 -999 -999
2010-04-07 06:59:59 51°13.661 2°55.96 14.2787 -999 -999 -999
2010-04-07 07:00:03 51°13.661 2°55.96 14.2792 -999 -999 -999
2010-04-07 07:00:07 51°13.661 2°55.96 14.2798 -999 -999 -999
2010-04-07 07:00:13 51°13.661 2°55.96 14.2805 -999 -999 -999
2010-04-07 07:00:17 51°13.662 2°55.96 14.2808 -999 -999 -999
2010-04-07 07:00:23 51°13.662 2°55.96 14.2813 -999 -999 -999
2010-04-07 07:00:27 51°13.662 2°55.96 14.2818 -999 -999 -999
2010-04-07 07:00:33 51°13.662 2°55.96 14.2823 -999 -999 -999
2010-04-07 07:00:37 51°13.662 2°55.96 14.2831 -999 -999 -999
2010-04-07 07:00:43 51°13.662 2°55.96 14.2834 -999 -999 -999
2010-04-07 07:00:47 51°13.662 2°55.961 14.2839 -999 -999 -999
2010-04-07 07:00:53 51°13.662 2°55.961 14.2842 -999 -999 -999
2010-04-07 07:00:57 51°13.662 2°55.96 14.2849 -999 -999 -999
2010-04-07 07:01:03 51°13.662 2°55.96 14.2851 -999 -999 -999
2010-04-07 07:01:07 51°13.662 2°55.96 14.2863 -999 -999 -999
2010-04-07 07:01:13 51°13.662 2°55.96 14.2865 -999 -999 -999
2010-04-07 07:01:17 51°13.662 2°55.96 14.2872 -999 -999 -999
2010-04-07 07:01:23 51°13.662 2°55.96 14.2875 -999 -999 -999
2010-04-07 07:01:29 51°13.662 2°55.96 14.2882 -999 -999 -999
2010-04-07 07:01:33 51°13.662 2°55.961 14.2887 -999 -999 -999
2010-04-07 07:01:38 51°13.662 2°55.96 14.2888 -999 -999 -999
2010-04-07 07:01:43 51°13.662 2°55.96 14.2897 -999 -999 -999
2010-04-07 07:01:49 51°13.662 2°55.96 14.2901 -999 -999 -999
2010-04-07 07:01:53 51°13.662 2°55.96 14.2906 -999 -999 -999
2010-04-07 07:01:57 51°13.661 2°55.96 14.2914 -999 -999 -999
2010-04-07 07:02:03 51°13.661 2°55.959 14.2918 -999 -999 -999
2010-04-07 07:02:07 51°13.661 2°55.959 14.2925 -999 -999 -999
2010-04-07 07:02:13 51°13.661 2°55.96 14.2928 -999 -999 -999
2010-04-07 07:02:19 51°13.662 2°55.959 14.2935 -999 -999 -999
2010-04-07 07:02:23 51°13.661 2°55.959 14.2939 -999 -999 -999
2010-04-07 07:02:27 51°13.661 2°55.959 14.2941 -999 -999 -999
2010-04-07 07:02:33 51°13.661 2°55.959 14.2949 -999 -999 -999
2010-04-07 07:02:37 51°13.661 2°55.959 14.2954 -999 -999 -999
2010-04-07 07:02:43 51°13.661 2°55.959 14.2961 -999 -999 -999
2010-04-07 07:02:47 51°13.662 2°55.959 14.2965 -999 -999 -999
2010-04-07 07:02:53 51°13.662 2°55.959 14.297 -999 -999 -999
2010-04-07 07:02:58 51°13.662 2°55.959 14.2975 -999 -999 -999
2010-04-07 07:03:03 51°13.662 2°55.959 14.298 -999 -999 -999
2010-04-07 07:03:08 51°13.662 2°55.959 14.2988 -999 -999 -999
2010-04-07 07:03:13 51°13.662 2°55.959 14.2992 -999 -999 -999
2010-04-07 07:03:18 51°13.662 2°55.959 14.2999 -999 -999 -999
2010-04-07 07:03:23 51°13.662 2°55.96 14.3003 -999 -999 -999
2010-04-07 07:03:28 51°13.662 2°55.96 14.3006 -999 -999 -999
2010-04-07 07:03:33 51°13.662 2°55.959 14.3016 -999 -999 -999
2010-04-07 07:03:37 51°13.662 2°55.96 -999 -999 -999 -999
2010-04-07 07:03:43 51°13.662 2°55.96 -999 -999 -999 -999
2010-04-07 07:51:54 51°13.662 2°55.961 15.175 -999 -999 -999
2010-04-07 07:51:59 51°13.662 2°55.961 15.1768 -999 -999 -999
2010-04-07 07:52:04 51°13.662 2°55.961 15.179 -999 -999 -999
2010-04-07 07:52:09 51°13.662 2°55.961 15.181 -999 -999 -999
2010-04-07 07:52:14 51°13.662 2°55.961 15.183 -999 -999 -999
2010-04-07 07:52:19 51°13.662 2°55.961 15.1851 -999 -999 -999
2010-04-07 07:52:24 51°13.662 2°55.961 15.1873 -999 -999 -999
2010-04-07 07:52:29 51°13.662 2°55.961 15.1893 -999 -999 -999
2010-04-07 07:52:34 51°13.662 2°55.961 15.1909 -999 -999 -999
2010-04-07 07:52:39 51°13.662 2°55.961 15.193 -999 -999 -999
2010-04-07 07:52:44 51°13.662 2°55.961 15.1951 -999 -999 -999
2010-04-07 07:52:49 51°13.662 2°55.961 15.1972 -999 -999 -999
2010-04-07 07:52:54 51°13.662 2°55.961 15.1992 -999 -999 -999
2010-04-07 07:52:59 51°13.662 2°55.961 15.2016 -999 -999 -999
2010-04-07 07:53:04 51°13.662 2°55.961 15.2032 -999 -999 -999
2010-04-07 07:53:09 51°13.662 2°55.961 15.2057 -999 -999 -999
2010-04-07 07:53:14 51°13.662 2°55.961 15.2075 -999 -999 -999
2010-04-07 07:53:19 51°13.662 2°55.961 15.2098 -999 -999 -999
2010-04-07 07:53:24 51°13.662 2°55.961 15.2112 -999 -999 -999
2010-04-07 07:53:29 51°13.662 2°55.961 15.2137 -999 -999 -999
2010-04-07 07:53:34 51°13.662 2°55.961 15.2155 -999 -999 -999
2010-04-07 07:53:39 51°13.662 2°55.961 15.2177 -999 -999 -999
2010-04-07 07:53:44 51°13.662 2°55.962 15.2199 -999 -999 -999
2010-04-07 07:53:49 51°13.662 2°55.962 15.222 -999 -999 -999
2010-04-07 07:53:54 51°13.662 2°55.962 15.2241 -999 -999 -999
2010-04-07 07:53:59 51°13.662 2°55.961 15.2263 -999 -999 -999
2010-04-07 07:54:04 51°13.662 2°55.961 15.2283 -999 -999 -999
2010-04-07 07:54:09 51°13.662 2°55.962 15.2304 -999 -999 -999
2010-04-07 07:54:14 51°13.662 2°55.961 15.2323 -999 -999 -999
2010-04-07 07:54:19 51°13.662 2°55.961 15.2348 -999 -999 -999
2010-04-07 07:54:24 51°13.662 2°55.962 15.2368 -999 -999 -999
2010-04-07 07:54:29 51°13.662 2°55.962 15.2385 -999 -999 -999
2010-04-07 07:54:34 51°13.662 2°55.961 15.2406 -999 -999 -999
2010-04-07 07:54:39 51°13.662 2°55.961 15.2428 -999 -999 -999
2010-04-07 07:54:44 51°13.662 2°55.961 15.2451 -999 -999 -999
2010-04-07 07:54:49 51°13.662 2°55.961 15.2472 -999 -999 -999
2010-04-07 07:54:54 51°13.662 2°55.961 15.2492 -999 -999 -999
2010-04-07 07:54:59 51°13.662 2°55.961 15.251 -999 -999 -999
2010-04-07 07:55:04 51°13.662 2°55.961 15.2533 -999 -999 -999
2010-04-07 07:55:09 51°13.662 2°55.961 15.2554 -999 -999 -999
2010-04-07 07:55:14 51°13.662 2°55.961 15.2572 -999 -999 -999
2010-04-07 07:55:19 51°13.662 2°55.961 15.2593 -999 -999 -999
2010-04-07 07:55:24 51°13.661 2°55.961 15.2615 -999 -999 -999
2010-04-07 07:55:29 51°13.662 2°55.961 15.2635 -999 -999 -999
2010-04-07 07:55:34 51°13.661 2°55.961 15.2656 -999 -999 -999
2010-04-07 07:55:39 51°13.661 2°55.961 15.2678 -999 -999 -999
2010-04-07 07:55:44 51°13.661 2°55.961 15.2698 -999 -999 -999
2010-04-07 07:55:49 51°13.661 2°55.961 15.2722 -999 -999 -999
2010-04-07 07:55:54 51°13.661 2°55.961 15.2745 -999 -999 -999
2010-04-07 07:55:59 51°13.661 2°55.961 15.2763 -999 -999 -999
2010-04-07 07:56:04 51°13.662 2°55.962 15.2782 -999 -999 -999
2010-04-07 07:56:09 51°13.661 2°55.961 15.2804 -999 -999 -999
2010-04-07 07:56:14 51°13.661 2°55.961 15.2826 -999 -999 -999
2010-04-07 07:56:19 51°13.661 2°55.961 15.2846 -999 -999 -999
2010-04-07 07:56:24 51°13.661 2°55.961 15.2863 -999 -999 -999
2010-04-07 07:56:29 51°13.661 2°55.961 15.2885 -999 -999 -999
2010-04-07 07:56:34 51°13.661 2°55.961 15.2908 -999 -999 -999
2010-04-07 07:56:39 51°13.662 2°55.961 15.2931 -999 -999 -999
2010-04-07 07:56:44 51°13.662 2°55.961 15.2946 -999 -999 -999
2010-04-07 07:56:49 51°13.662 2°55.961 15.2972 -999 -999 -999
2010-04-07 07:56:54 51°13.662 2°55.961 15.2991 -999 -999 -999
2010-04-07 07:56:59 51°13.662 2°55.961 15.3014 -999 -999 -999
2010-04-07 07:57:04 51°13.662 2°55.961 15.3029 -999 -999 -999
2010-04-07 07:57:09 51°13.662 2°55.961 15.305 -999 -999 -999
2010-04-07 07:57:14 51°13.662 2°55.961 15.3071 -999 -999 -999
2010-04-07 07:57:19 51°13.662 2°55.961 15.3095 -999 -999 -999
2010-04-07 07:57:24 51°13.662 2°55.961 15.3117 -999 -999 -999
2010-04-07 07:57:29 51°13.662 2°55.961 15.3134 -999 -999 -999
2010-04-07 07:57:34 51°13.662 2°55.961 15.3155 -999 -999 -999
2010-04-07 07:57:39 51°13.662 2°55.961 15.3176 -999 -999 -999
2010-04-07 07:57:44 51°13.662 2°55.961 15.3198 -999 -999 -999
2010-04-07 07:57:49 51°13.662 2°55.961 15.3217 -999 -999 -999
2010-04-07 07:57:54 51°13.662 2°55.961 15.3237 -999 -999 -999
2010-04-07 07:57:59 51°13.662 2°55.961 15.3258 -999 -999 -999
2010-04-07 07:58:04 51°13.662 2°55.961 15.3282 -999 -999 -999
2010-04-07 07:58:09 51°13.662 2°55.961 15.3296 -999 -999 -999
2010-04-07 07:58:14 51°13.662 2°55.961 15.3318 -999 -999 -999
2010-04-07 07:58:19 51°13.662 2°55.961 15.3341 -999 -999 -999
2010-04-07 07:58:24 51°13.662 2°55.961 15.3361 -999 -999 -999
2010-04-07 07:58:29 51°13.662 2°55.961 15.3385 -999 -999 -999
2010-04-07 07:58:34 51°13.662 2°55.961 15.3398 -999 -999 -999
2010-04-07 07:58:39 51°13.662 2°55.961 15.3423 -999 -999 -999
2010-04-07 07:58:44 51°13.662 2°55.961 15.3442 -999 -999 -999
2010-04-07 07:58:49 51°13.662 2°55.961 15.3462 -999 -999 -999
2010-04-07 07:58:54 51°13.662 2°55.961 15.3482 -999 -999 -999
2010-04-07 07:58:59 51°13.662 2°55.961 15.3501 -999 -999 -999
2010-04-07 07:59:04 51°13.662 2°55.961 15.3521 -999 -999 -999
2010-04-07 07:59:09 51°13.662 2°55.961 15.3543 -999 -999 -999
2010-04-07 07:59:14 51°13.662 2°55.961 15.3564 -999 -999 -999
2010-04-07 07:59:19 51°13.662 2°55.961 15.3581 -999 -999 -999
2010-04-07 07:59:24 51°13.662 2°55.961 15.3604 -999 -999 -999
2010-04-07 07:59:29 51°13.662 2°55.961 15.3622 -999 -999 -999
2010-04-07 07:59:34 51°13.662 2°55.961 15.3645 -999 -999 -999
2010-04-07 07:59:39 51°13.662 2°55.961 15.3663 -999 -999 -999
2010-04-07 07:59:44 51°13.662 2°55.961 15.3682 -999 -999 -999
2010-04-07 07:59:49 51°13.662 2°55.961 15.3701 -999 -999 -999
2010-04-07 07:59:54 51°13.662 2°55.961 15.3724 -999 -999 -999
2010-04-07 07:59:59 51°13.662 2°55.961 15.3746 -999 -999 -999
2010-04-07 08:00:04 51°13.662 2°55.961 15.3765 -999 -999 -999
2010-04-07 08:00:09 51°13.662 2°55.961 15.3784 -999 -999 -999
2010-04-07 08:00:14 51°13.662 2°55.961 15.3804 -999 -999 -999
2010-04-07 08:00:19 51°13.662 2°55.961 15.3825 -999 -999 -999
2010-04-07 08:00:24 51°13.662 2°55.961 15.3847 -999 -999 -999
2010-04-07 08:00:29 51°13.662 2°55.961 15.3864 -999 -999 -999
2010-04-07 08:00:34 51°13.662 2°55.961 15.3883 -999 -999 -999
2010-04-07 08:00:39 51°13.662 2°55.961 15.3906 -999 -999 -999
2010-04-07 08:00:44 51°13.662 2°55.961 15.3928 -999 -999 -999
2010-04-07 08:00:49 51°13.662 2°55.961 15.3945 -999 -999 -999
2010-04-07 08:00:54 51°13.662 2°55.961 15.3964 -999 -999 -999
2010-04-07 08:00:59 51°13.662 2°55.961 15.3984 -999 -999 -999
2010-04-07 08:01:04 51°13.662 2°55.961 15.4004 -999 -999 -999
2010-04-07 08:01:09 51°13.662 2°55.961 15.4023 -999 -999 -999
2010-04-07 08:01:14 51°13.662 2°55.961 15.4042 -999 -999 -999
2010-04-07 08:01:19 51°13.662 2°55.961 15.4063 -999 -999 -999
2010-04-07 08:01:24 51°13.662 2°55.961 15.4083 -999 -999 -999
2010-04-07 08:01:29 51°13.662 2°55.961 15.4104 -999 -999 -999
2010-04-07 08:01:34 51°13.662 2°55.961 15.4121 -999 -999 -999
2010-04-07 08:01:39 51°13.662 2°55.961 15.4142 -999 -999 -999
2010-04-07 08:01:44 51°13.662 2°55.961 15.4166 -999 -999 -999
2010-04-07 08:01:49 51°13.662 2°55.961 15.4178 -999 -999 -999
2010-04-07 08:01:54 51°13.662 2°55.961 15.4206 -999 -999 -999
2010-04-07 08:01:59 51°13.662 2°55.961 15.4221 -999 -999 -999
2010-04-07 08:02:04 51°13.662 2°55.961 15.4242 -999 -999 -999
2010-04-07 08:02:09 51°13.662 2°55.961 15.4261 -999 -999 -999
2010-04-07 08:02:14 51°13.662 2°55.961 15.4282 -999 -999 -999
2010-04-07 08:02:19 51°13.662 2°55.961 15.4301 -999 -999 -999
2010-04-07 08:02:24 51°13.662 2°55.961 15.4329 -999 -999 -999
2010-04-07 08:02:29 51°13.662 2°55.961 15.4356 -999 -999 -999
2010-04-07 08:02:34 51°13.662 2°55.961 15.4378 -999 -999 -999
2010-04-07 08:02:39 51°13.662 2°55.961 15.4396 -999 -999 -999
2010-04-07 08:02:44 51°13.662 2°55.961 15.4413 -999 -999 -999
2010-04-07 08:02:49 51°13.662 2°55.961 15.444 -999 -999 -999
2010-04-07 08:02:54 51°13.662 2°55.961 15.4459 -999 -999 -999
2010-04-07 08:02:59 51°13.662 2°55.961 15.4477 -999 -999 -999
2010-04-07 08:03:04 51°13.662 2°55.961 15.4495 -999 -999 -999
2010-04-07 08:03:09 51°13.662 2°55.961 15.4516 -999 -999 -999
2010-04-07 08:03:14 51°13.662 2°55.961 15.4535 -999 -999 -999
2010-04-07 08:03:19 51°13.662 2°55.961 15.4553 -999 -999 -999
2010-04-07 08:03:24 51°13.662 2°55.961 15.4568 -999 -999 -999
2010-04-07 08:03:29 51°13.662 2°55.961 15.4579 -999 -999 -999
2010-04-07 08:03:34 51°13.662 2°55.961 15.4597 -999 -999 -999
2010-04-07 08:03:39 51°13.662 2°55.961 15.4617 -999 -999 -999
2010-04-07 08:03:44 51°13.662 2°55.961 15.4629 -999 -999 -999
2010-04-07 08:03:49 51°13.662 2°55.961 15.4642 -999 -999 -999
2010-04-07 08:03:54 51°13.662 2°55.961 15.4656 -999 -999 -999
2010-04-07 08:03:59 51°13.662 2°55.961 15.4672 -999 -999 -999
2010-04-07 08:04:04 51°13.662 2°55.961 15.4686 -999 -999 -999
2010-04-07 08:04:09 51°13.662 2°55.961 15.4691 -999 -999 -999
2010-04-07 08:04:14 51°13.662 2°55.961 15.4709 -999 -999 -999
2010-04-07 08:04:19 51°13.662 2°55.961 15.4723 -999 -999 -999
2010-04-07 08:04:24 51°13.662 2°55.961 15.4735 -999 -999 -999
2010-04-07 08:04:29 51°13.662 2°55.961 15.4747 -999 -999 -999
2010-04-07 08:04:34 51°13.662 2°55.961 15.4757 -999 -999 -999
2010-04-07 08:04:39 51°13.662 2°55.961 15.4771 -999 -999 -999
2010-04-07 08:04:44 51°13.662 2°55.961 15.4778 -999 -999 -999
2010-04-07 08:04:49 51°13.662 2°55.961 15.4792 -999 -999 -999
2010-04-07 08:04:54 51°13.662 2°55.961 15.4801 -999 -999 -999
2010-04-07 08:04:59 51°13.662 2°55.961 15.4809 -999 -999 -999
2010-04-07 08:05:04 51°13.662 2°55.961 15.4821 -999 -999 -999
2010-04-07 08:05:09 51°13.662 2°55.961 15.483 -999 -999 -999
2010-04-07 08:05:14 51°13.662 2°55.961 15.4842 -999 -999 -999
2010-04-07 08:05:19 51°13.662 2°55.961 15.4851 -999 -999 -999
2010-04-07 08:05:24 51°13.662 2°55.961 15.4856 -999 -999 -999
2010-04-07 08:05:29 51°13.662 2°55.961 15.4868 -999 -999 -999
2010-04-07 08:05:34 51°13.662 2°55.961 15.4877 -999 -999 -999
2010-04-07 08:05:39 51°13.662 2°55.961 15.4889 -999 -999 -999
2010-04-07 08:05:44 51°13.662 2°55.961 15.4892 -999 -999 -999
2010-04-07 08:05:49 51°13.662 2°55.961 15.4901 -999 -999 -999
2010-04-07 08:05:54 51°13.662 2°55.961 15.491 -999 -999 -999
2010-04-07 08:05:59 51°13.662 2°55.96 15.4918 -999 -999 -999
2010-04-07 08:06:03 51°13.662 2°55.96 15.4926 -999 -999 -999
2010-04-07 08:06:09 51°13.662 2°55.96 15.4934 -999 -999 -999
2010-04-07 08:06:14 51°13.662 2°55.96 15.4944 -999 -999 -999
2010-04-07 08:06:18 51°13.662 2°55.96 15.4952 -999 -999 -999
2010-04-07 08:06:24 51°13.662 2°55.96 15.4959 -999 -999 -999
2010-04-07 08:06:29 51°13.662 2°55.96 15.4966 -999 -999 -999
2010-04-07 08:06:35 51°13.662 2°55.961 15.4973 -999 -999 -999
2010-04-07 08:06:39 51°13.661 2°55.961 15.4985 -999 -999 -999
2010-04-07 08:06:44 51°13.661 2°55.961 15.4988 -999 -999 -999
2010-04-07 08:06:49 51°13.661 2°55.961 15.4994 -999 -999 -999
2010-04-07 08:06:54 51°13.661 2°55.961 15.5003 -999 -999 -999
2010-04-07 08:06:58 51°13.661 2°55.961 15.5009 -999 -999 -999
2010-04-07 08:07:04 51°13.661 2°55.962 15.5019 -999 -999 -999
2010-04-07 08:07:09 51°13.661 2°55.962 15.5024 -999 -999 -999
2010-04-07 08:07:15 51°13.66 2°55.962 15.5028 -999 -999 -999
2010-04-07 08:07:19 51°13.66 2°55.962 15.5037 -999 -999 -999
2010-04-07 08:07:24 51°13.66 2°55.962 15.5044 -999 -999 -999
2010-04-07 08:07:28 51°13.66 2°55.962 15.505 -999 -999 -999
2010-04-07 08:07:34 51°13.66 2°55.962 15.5053 -999 -999 -999
2010-04-07 08:07:39 51°13.66 2°55.962 15.5064 -999 -999 -999
2010-04-07 08:07:44 51°13.66 2°55.962 15.507 -999 -999 -999
2010-04-07 08:07:48 51°13.66 2°55.962 15.5076 -999 -999 -999
2010-04-07 08:07:54 51°13.66 2°55.962 15.5081 -999 -999 -999
2010-04-07 08:07:59 51°13.66 2°55.962 15.5088 -999 -999 -999
2010-04-07 08:08:04 51°13.66 2°55.962 15.5094 -999 -999 -999
2010-04-07 08:08:08 51°13.66 2°55.962 15.5101 -999 -999 -999
2010-04-07 08:08:15 51°13.66 2°55.962 15.5106 -999 -999 -999
2010-04-07 08:08:19 51°13.66 2°55.962 15.5108 -999 -999 -999
2010-04-07 08:08:24 51°13.66 2°55.961 15.5119 -999 -999 -999
2010-04-07 08:08:29 51°13.66 2°55.961 15.5122 -999 -999 -999
2010-04-07 08:08:34 51°13.661 2°55.961 15.5128 -999 -999 -999
2010-04-07 08:08:39 51°13.661 2°55.961 15.5133 -999 -999 -999
2010-04-07 08:08:44 51°13.661 2°55.961 15.5137 -999 -999 -999
2010-04-07 08:08:49 51°13.661 2°55.961 15.5142 -999 -999 -999
2010-04-07 08:08:55 51°13.661 2°55.961 15.515 -999 -999 -999
2010-04-07 08:08:59 51°13.661 2°55.961 15.5155 -999 -999 -999
2010-04-07 08:09:04 51°13.661 2°55.961 15.5161 -999 -999 -999
2010-04-07 08:09:09 51°13.661 2°55.961 15.5168 -999 -999 -999
2010-04-07 08:09:14 51°13.661 2°55.961 15.5172 -999 -999 -999
2010-04-07 08:09:19 51°13.661 2°55.961 15.5175 -999 -999 -999
2010-04-07 08:09:24 51°13.661 2°55.961 15.5181 -999 -999 -999
2010-04-07 08:09:29 51°13.661 2°55.961 15.5188 -999 -999 -999
2010-04-07 08:09:34 51°13.661 2°55.961 15.5192 -999 -999 -999
2010-04-07 08:09:39 51°13.661 2°55.96 15.5197 -999 -999 -999
2010-04-07 08:09:44 51°13.661 2°55.96 15.5201 -999 -999 -999
2010-04-07 08:09:49 51°13.661 2°55.961 15.5206 -999 -999 -999
2010-04-07 08:09:54 51°13.661 2°55.961 15.5211 -999 -999 -999
2010-04-07 08:09:59 51°13.661 2°55.961 15.5215 -999 -999 -999
2010-04-07 08:10:04 51°13.661 2°55.961 15.5223 -999 -999 -999
2010-04-07 08:10:09 51°13.661 2°55.961 15.5224 -999 -999 -999
2010-04-07 08:10:14 51°13.661 2°55.961 15.5229 -999 -999 -999
2010-04-07 08:10:20 51°13.661 2°55.961 15.5237 -999 -999 -999
2010-04-07 08:10:25 51°13.661 2°55.961 15.5237 -999 -999 -999
2010-04-07 08:10:29 51°13.661 2°55.96 15.5242 -999 -999 -999
2010-04-07 08:10:35 51°13.661 2°55.961 15.5251 -999 -999 -999
2010-04-07 08:10:40 51°13.661 2°55.961 15.5252 -999 -999 -999
2010-04-07 08:10:45 51°13.661 2°55.961 15.5254 -999 -999 -999
2010-04-07 08:10:49 51°13.661 2°55.961 15.5261 -999 -999 -999
2010-04-07 08:10:55 51°13.661 2°55.96 15.5265 -999 -999 -999
2010-04-07 08:10:59 51°13.661 2°55.96 15.5269 -999 -999 -999
2010-04-07 08:11:04 51°13.661 2°55.96 15.5275 -999 -999 -999
2010-04-07 08:11:09 51°13.661 2°55.96 15.5279 -999 -999 -999
2010-04-07 08:11:15 51°13.662 2°55.96 15.5281 -999 -999 -999
2010-04-07 08:11:19 51°13.662 2°55.96 15.5287 -999 -999 -999
2010-04-07 08:11:24 51°13.662 2°55.96 15.529 -999 -999 -999
2010-04-07 08:11:29 51°13.662 2°55.96 15.5295 -999 -999 -999
2010-04-07 08:11:34 51°13.662 2°55.96 15.5297 -999 -999 -999
2010-04-07 08:11:39 51°13.662 2°55.96 15.5304 -999 -999 -999
2010-04-07 08:11:44 51°13.662 2°55.96 15.5307 -999 -999 -999
2010-04-07 08:11:49 51°13.662 2°55.96 15.5312 -999 -999 -999
2010-04-07 08:11:54 51°13.662 2°55.96 15.5315 -999 -999 -999
2010-04-07 08:11:59 51°13.662 2°55.96 15.5317 -999 -999 -999
2010-04-07 08:12:04 51°13.662 2°55.96 15.5322 -999 -999 -999
2010-04-07 08:12:09 51°13.662 2°55.96 15.5325 -999 -999 -999
2010-04-07 08:12:14 51°13.662 2°55.96 15.5328 -999 -999 -999
2010-04-07 08:12:19 51°13.662 2°55.96 15.5336 -999 -999 -999
2010-04-07 08:12:24 51°13.662 2°55.96 15.5338 -999 -999 -999
2010-04-07 08:12:29 51°13.662 2°55.96 15.5339 -999 -999 -999
2010-04-07 08:12:34 51°13.662 2°55.961 15.5346 -999 -999 -999
2010-04-07 08:12:39 51°13.662 2°55.96 15.5345 -999 -999 -999
2010-04-07 08:12:44 51°13.662 2°55.961 15.5352 -999 -999 -999
2010-04-07 08:12:49 51°13.661 2°55.961 15.5355 -999 -999 -999
2010-04-07 08:12:54 51°13.661 2°55.961 15.5362 -999 -999 -999
2010-04-07 08:12:59 51°13.661 2°55.96 15.5364 -999 -999 -999
2010-04-07 08:13:04 51°13.662 2°55.96 15.5363 -999 -999 -999
2010-04-07 08:13:09 51°13.662 2°55.96 15.5367 -999 -999 -999
2010-04-07 08:13:14 51°13.662 2°55.96 15.5374 -999 -999 -999
2010-04-07 08:13:19 51°13.662 2°55.96 15.5375 -999 -999 -999
2010-04-07 08:13:24 51°13.662 2°55.96 15.5379 -999 -999 -999
2010-04-07 08:13:29 51°13.662 2°55.96 15.5382 -999 -999 -999
2010-04-07 08:13:34 51°13.662 2°55.96 15.5385 -999 -999 -999
2010-04-07 08:13:39 51°13.662 2°55.96 15.5392 -999 -999 -999
2010-04-07 08:13:44 51°13.662 2°55.96 15.5393 -999 -999 -999
2010-04-07 08:13:49 51°13.662 2°55.96 15.5392 -999 -999 -999
2010-04-07 08:13:54 51°13.662 2°55.96 15.5399 -999 -999 -999
2010-04-07 08:13:59 51°13.662 2°55.96 15.5405 -999 -999 -999
2010-04-07 08:14:04 51°13.662 2°55.96 15.5408 -999 -999 -999
2010-04-07 08:14:09 51°13.662 2°55.96 15.5411 -999 -999 -999
2010-04-07 08:14:14 51°13.662 2°55.96 15.5416 -999 -999 -999
2010-04-07 08:14:19 51°13.662 2°55.96 15.5417 -999 -999 -999
2010-04-07 08:14:24 51°13.662 2°55.96 15.5419 -999 -999 -999
2010-04-07 08:14:29 51°13.662 2°55.96 15.5423 -999 -999 -999
2010-04-07 08:14:34 51°13.662 2°55.961 15.5422 -999 -999 -999
2010-04-07 08:14:39 51°13.662 2°55.961 15.5426 -999 -999 -999
2010-04-07 08:14:44 51°13.662 2°55.961 15.5428 -999 -999 -999
2010-04-07 08:14:49 51°13.662 2°55.961 15.5434 -999 -999 -999
2010-04-07 08:14:54 51°13.662 2°55.961 15.5435 -999 -999 -999
2010-04-07 08:14:59 51°13.662 2°55.961 15.5435 -999 -999 -999
2010-04-07 08:15:04 51°13.662 2°55.961 15.5438 -999 -999 -999
2010-04-07 08:15:09 51°13.662 2°55.961 15.544 -999 -999 -999
2010-04-07 08:15:14 51°13.662 2°55.961 15.5446 -999 -999 -999
2010-04-07 08:15:19 51°13.662 2°55.961 15.5448 -999 -999 -999
2010-04-07 08:15:24 51°13.662 2°55.961 15.5451 -999 -999 -999
2010-04-07 08:15:29 51°13.662 2°55.961 15.5453 -999 -999 -999
2010-04-07 08:15:34 51°13.662 2°55.961 15.5456 -999 -999 -999
2010-04-07 08:15:39 51°13.663 2°55.961 15.5458 -999 -999 -999
2010-04-07 08:15:45 51°13.662 2°55.961 15.5462 -999 -999 -999
2010-04-07 08:15:49 51°13.662 2°55.961 15.5464 -999 -999 -999
2010-04-07 08:15:54 51°13.662 2°55.961 15.5467 -999 -999 -999
2010-04-07 08:15:59 51°13.662 2°55.961 15.5468 -999 -999 -999
2010-04-07 08:16:04 51°13.662 2°55.961 15.5472 -999 -999 -999
2010-04-07 08:16:09 51°13.662 2°55.962 15.5474 -999 -999 -999
2010-04-07 08:16:15 51°13.662 2°55.962 15.5477 -999 -999 -999
2010-04-07 08:16:19 51°13.662 2°55.962 15.5479 -999 -999 -999
2010-04-07 08:16:24 51°13.662 2°55.962 15.5484 -999 -999 -999
2010-04-07 08:16:29 51°13.662 2°55.962 15.5484 -999 -999 -999
2010-04-07 08:16:34 51°13.662 2°55.962 15.5482 -999 -999 -999
2010-04-07 08:16:39 51°13.662 2°55.962 15.549 -999 -999 -999
2010-04-07 08:16:44 51°13.662 2°55.962 15.5491 -999 -999 -999
2010-04-07 08:16:49 51°13.662 2°55.962 15.5497 -999 -999 -999
2010-04-07 08:16:54 51°13.662 2°55.962 15.5495 -999 -999 -999
2010-04-07 08:16:59 51°13.661 2°55.962 15.5497 -999 -999 -999
2010-04-07 08:17:04 51°13.661 2°55.962 15.5499 -999 -999 -999
2010-04-07 08:17:09 51°13.661 2°55.962 15.5504 -999 -999 -999
2010-04-07 08:17:14 51°13.661 2°55.962 15.5507 -999 -999 -999
2010-04-07 08:17:19 51°13.661 2°55.962 15.5507 -999 -999 -999
2010-04-07 08:17:24 51°13.661 2°55.962 15.5511 -999 -999 -999
2010-04-07 08:17:29 51°13.661 2°55.962 15.5513 -999 -999 -999
2010-04-07 08:17:34 51°13.66 2°55.962 15.5516 -999 -999 -999
2010-04-07 08:17:39 51°13.66 2°55.963 15.5518 -999 -999 -999
2010-04-07 08:17:44 51°13.66 2°55.963 15.5522 -999 -999 -999
2010-04-07 08:17:49 51°13.66 2°55.963 15.5521 -999 -999 -999
2010-04-07 08:17:54 51°13.66 2°55.963 15.5526 -999 -999 -999
2010-04-07 08:17:59 51°13.66 2°55.962 15.5528 -999 -999 -999
2010-04-07 08:18:05 51°13.66 2°55.963 15.5529 -999 -999 -999
2010-04-07 08:18:09 51°13.661 2°55.963 15.5532 -999 -999 -999
2010-04-07 08:18:14 51°13.661 2°55.963 15.5532 -999 -999 -999
2010-04-07 08:18:19 51°13.661 2°55.962 15.5536 -999 -999 -999
2010-04-07 08:18:25 51°13.661 2°55.962 15.5538 -999 -999 -999
2010-04-07 08:18:29 51°13.661 2°55.96 15.5539 -999 -999 -999
2010-04-07 08:18:34 51°13.662 2°55.955 15.5543 -999 -999 -999
2010-04-07 08:18:39 51°13.663 2°55.952 15.5545 -999 -999 -999
2010-04-07 08:18:44 51°13.663 2°55.952 15.5544 -999 -999 -999
2010-04-07 08:18:49 51°13.662 2°55.954 15.5553 -999 -999 -999
2010-04-07 08:18:54 51°13.662 2°55.955 15.5552 -999 -999 -999
2010-04-07 08:18:59 51°13.662 2°55.956 15.5557 -999 -999 -999
2010-04-07 08:19:04 51°13.662 2°55.956 15.5555 -999 -999 -999
2010-04-07 08:19:09 51°13.662 2°55.956 15.5558 -999 -999 -999
2010-04-07 08:19:14 51°13.662 2°55.956 15.5561 -999 -999 -999
2010-04-07 08:19:19 51°13.662 2°55.956 15.5564 -999 -999 -999
2010-04-07 08:19:24 51°13.662 2°55.956 15.5563 -999 -999 -999
2010-04-07 08:19:29 51°13.662 2°55.956 15.5568 -999 -999 -999
2010-04-07 08:19:34 51°13.662 2°55.956 15.5571 -999 -999 -999
2010-04-07 08:19:39 51°13.662 2°55.957 15.5573 -999 -999 -999
2010-04-07 08:19:44 51°13.662 2°55.957 15.5574 -999 -999 -999
2010-04-07 08:19:49 51°13.662 2°55.958 15.5575 -999 -999 -999
2010-04-07 08:19:54 51°13.662 2°55.958 15.5579 -999 -999 -999
2010-04-07 08:19:59 51°13.662 2°55.958 15.5581 -999 -999 -999
2010-04-07 08:20:04 51°13.662 2°55.958 15.5584 -999 -999 -999
2010-04-07 08:20:09 51°13.662 2°55.958 15.5584 -999 -999 -999
2010-04-07 08:20:14 51°13.661 2°55.958 15.559 -999 -999 -999
2010-04-07 08:20:19 51°13.661 2°55.959 15.5592 -999 -999 -999
2010-04-07 08:20:24 51°13.661 2°55.959 15.5595 -999 -999 -999
2010-04-07 08:20:29 51°13.661 2°55.959 15.5593 -999 -999 -999
2010-04-07 08:20:34 51°13.661 2°55.959 15.5598 -999 -999 -999
2010-04-07 08:20:39 51°13.661 2°55.959 15.5598 -999 -999 -999
2010-04-07 08:20:44 51°13.661 2°55.959 15.5601 -999 -999 -999
2010-04-07 08:20:49 51°13.661 2°55.959 15.5606 -999 -999 -999
2010-04-07 08:20:54 51°13.661 2°55.96 15.5606 -999 -999 -999
2010-04-07 08:21:00 51°13.661 2°55.96 15.5609 -999 -999 -999
2010-04-07 08:21:04 51°13.661 2°55.96 15.5611 -999 -999 -999
2010-04-07 08:21:09 51°13.661 2°55.96 15.5609 -999 -999 -999
2010-04-07 08:21:14 51°13.661 2°55.959 15.5617 -999 -999 -999
2010-04-07 08:21:19 51°13.661 2°55.959 15.5616 -999 -999 -999
2010-04-07 08:21:24 51°13.661 2°55.959 15.562 -999 -999 -999
2010-04-07 08:21:29 51°13.661 2°55.959 15.562 -999 -999 -999
2010-04-07 08:21:34 51°13.662 2°55.959 15.5623 -999 -999 -999
2010-04-07 08:21:39 51°13.662 2°55.959 15.5626 -999 -999 -999
2010-04-07 08:21:44 51°13.662 2°55.959 15.5628 -999 -999 -999
2010-04-07 08:21:49 51°13.662 2°55.959 15.5631 -999 -999 -999
2010-04-07 08:21:54 51°13.662 2°55.96 15.5631 -999 -999 -999
2010-04-07 08:21:59 51°13.662 2°55.96 15.5633 -999 -999 -999
2010-04-07 08:22:04 51°13.662 2°55.959 15.5636 -999 -999 -999
2010-04-07 08:22:09 51°13.662 2°55.96 15.5639 -999 -999 -999
2010-04-07 08:22:14 51°13.662 2°55.96 15.5645 -999 -999 -999
2010-04-07 08:22:19 51°13.662 2°55.959 15.5645 -999 -999 -999
2010-04-07 08:22:24 51°13.662 2°55.959 15.5645 -999 -999 -999
2010-04-07 08:22:29 51°13.662 2°55.96 15.5647 -999 -999 -999
2010-04-07 08:22:34 51°13.662 2°55.96 15.5648 -999 -999 -999
2010-04-07 08:22:39 51°13.662 2°55.96 15.5651 -999 -999 -999
2010-04-07 08:22:44 51°13.662 2°55.96 15.5656 -999 -999 -999
2010-04-07 08:22:49 51°13.662 2°55.959 15.5652 -999 -999 -999
2010-04-07 08:22:54 51°13.662 2°55.959 15.5651 -999 -999 -999
2010-04-07 08:22:59 51°13.662 2°55.959 15.5653 -999 -999 -999
2010-04-07 08:23:04 51°13.662 2°55.959 15.5657 -999 -999 -999
2010-04-07 08:23:09 51°13.662 2°55.959 15.5658 -999 -999 -999
2010-04-07 08:23:14 51°13.662 2°55.959 15.5659 -999 -999 -999
2010-04-07 08:23:19 51°13.662 2°55.959 15.5663 -999 -999 -999
2010-04-07 08:23:24 51°13.662 2°55.959 15.5664 -999 -999 -999
2010-04-07 08:23:29 51°13.662 2°55.959 15.5662 -999 -999 -999
2010-04-07 08:23:34 51°13.662 2°55.959 15.5668 -999 -999 -999
2010-04-07 08:23:39 51°13.662 2°55.96 15.5665 -999 -999 -999
2010-04-07 08:23:44 51°13.662 2°55.96 15.5669 -999 -999 -999
2010-04-07 08:23:49 51°13.662 2°55.96 15.5672 -999 -999 -999
2010-04-07 08:23:54 51°13.662 2°55.96 15.5669 -999 -999 -999
2010-04-07 08:23:59 51°13.662 2°55.96 15.5676 -999 -999 -999
2010-04-07 08:24:04 51°13.662 2°55.96 15.5678 -999 -999 -999
2010-04-07 08:24:09 51°13.662 2°55.959 15.5677 -999 -999 -999
2010-04-07 08:24:14 51°13.662 2°55.959 15.5677 -999 -999 -999
2010-04-07 08:24:19 51°13.662 2°55.959 15.5679 -999 -999 -999
2010-04-07 08:24:24 51°13.662 2°55.959 15.5685 -999 -999 -999
2010-04-07 08:24:29 51°13.661 2°55.959 15.5685 -999 -999 -999
2010-04-07 08:24:34 51°13.66 2°55.961 15.5688 -999 -999 -999
2010-04-07 08:24:39 51°13.659 2°55.962 15.569 -999 -999 -999
2010-04-07 08:24:44 51°13.659 2°55.962 15.5692 -999 -999 -999
2010-04-07 08:24:49 51°13.659 2°55.962 15.5694 -999 -999 -999
2010-04-07 08:24:54 51°13.659 2°55.962 15.5695 -999 -999 -999
2010-04-07 08:24:59 51°13.659 2°55.962 15.5698 -999 -999 -999
2010-04-07 08:25:04 51°13.659 2°55.962 15.5699 -999 -999 -999
2010-04-07 08:25:09 51°13.659 2°55.962 15.5701 -999 -999 -999
2010-04-07 08:25:14 51°13.659 2°55.961 15.5703 -999 -999 -999
2010-04-07 08:25:19 51°13.66 2°55.961 15.5704 -999 -999 -999
2010-04-07 08:25:24 51°13.66 2°55.961 15.5706 -999 -999 -999
2010-04-07 08:25:29 51°13.66 2°55.96 15.5708 -999 -999 -999
2010-04-07 08:25:34 51°13.66 2°55.96 15.5713 -999 -999 -999
2010-04-07 08:25:39 51°13.66 2°55.961 15.5713 -999 -999 -999
2010-04-07 08:25:44 51°13.66 2°55.961 15.5714 -999 -999 -999
2010-04-07 08:25:49 51°13.66 2°55.961 15.5714 -999 -999 -999
2010-04-07 08:25:54 51°13.661 2°55.96 15.5717 -999 -999 -999
2010-04-07 08:25:59 51°13.661 2°55.96 15.572 -999 -999 -999
2010-04-07 08:26:04 51°13.661 2°55.96 15.572 -999 -999 -999
2010-04-07 08:26:09 51°13.66 2°55.961 15.5721 -999 -999 -999
2010-04-07 08:26:14 51°13.66 2°55.961 15.5722 -999 -999 -999
2010-04-07 08:26:19 51°13.66 2°55.961 15.5726 -999 -999 -999
2010-04-07 08:26:24 51°13.66 2°55.961 15.573 -999 -999 -999
2010-04-07 08:26:29 51°13.66 2°55.962 15.5726 -999 -999 -999
2010-04-07 08:26:34 51°13.66 2°55.961 15.5728 -999 -999 -999
2010-04-07 08:26:39 51°13.66 2°55.961 15.5728 -999 -999 -999
2010-04-07 08:26:44 51°13.661 2°55.961 15.573 -999 -999 -999
2010-04-07 08:26:49 51°13.66 2°55.961 15.5733 -999 -999 -999
2010-04-07 08:26:54 51°13.66 2°55.961 15.5735 -999 -999 -999
2010-04-07 08:26:59 51°13.661 2°55.96 15.5736 -999 -999 -999
2010-04-07 08:27:04 51°13.661 2°55.96 15.5735 -999 -999 -999
2010-04-07 08:27:09 51°13.661 2°55.96 15.5738 -999 -999 -999
2010-04-07 08:27:14 51°13.661 2°55.96 15.5737 -999 -999 -999
2010-04-07 08:27:19 51°13.662 2°55.96 15.5742 -999 -999 -999
2010-04-07 08:27:24 51°13.662 2°55.959 15.5743 -999 -999 -999
2010-04-07 08:27:29 51°13.662 2°55.959 15.5742 -999 -999 -999
2010-04-07 08:27:34 51°13.662 2°55.959 15.5742 -999 -999 -999
2010-04-07 08:27:39 51°13.662 2°55.959 15.5744 -999 -999 -999
2010-04-07 08:27:44 51°13.662 2°55.959 15.5744 -999 -999 -999
2010-04-07 08:27:49 51°13.662 2°55.959 15.5745 -999 -999 -999
2010-04-07 08:27:54 51°13.662 2°55.959 15.5744 -999 -999 -999
2010-04-07 08:27:59 51°13.663 2°55.958 15.5749 -999 -999 -999
2010-04-07 08:28:04 51°13.663 2°55.958 15.5749 -999 -999 -999
2010-04-07 08:28:09 51°13.662 2°55.958 15.5748 -999 -999 -999
2010-04-07 08:28:14 51°13.663 2°55.959 15.5747 -999 -999 -999
2010-04-07 08:28:19 51°13.663 2°55.958 15.575 -999 -999 -999
2010-04-07 08:28:25 51°13.663 2°55.958 15.5754 -999 -999 -999
2010-04-07 08:28:29 51°13.663 2°55.959 15.5754 -999 -999 -999
2010-04-07 08:28:34 51°13.663 2°55.959 15.5752 -999 -999 -999
2010-04-07 08:28:39 51°13.663 2°55.958 15.5755 -999 -999 -999
2010-04-07 08:28:44 51°13.664 2°55.958 15.5753 -999 -999 -999
2010-04-07 08:28:49 51°13.664 2°55.958 15.5757 -999 -999 -999
2010-04-07 08:28:54 51°13.664 2°55.958 15.5758 -999 -999 -999
2010-04-07 08:28:59 51°13.664 2°55.958 15.5756 -999 -999 -999
2010-04-07 08:29:04 51°13.664 2°55.958 15.5759 -999 -999 -999
2010-04-07 08:29:09 51°13.664 2°55.958 15.5757 -999 -999 -999
2010-04-07 08:29:14 51°13.664 2°55.958 15.5762 -999 -999 -999
2010-04-07 08:29:19 51°13.664 2°55.958 15.5762 -999 -999 -999
2010-04-07 08:29:24 51°13.664 2°55.958 15.5763 -999 -999 -999
2010-04-07 08:29:29 51°13.664 2°55.958 15.5768 -999 -999 -999
2010-04-07 08:29:34 51°13.663 2°55.958 15.5769 -999 -999 -999
2010-04-07 08:29:39 51°13.663 2°55.958 15.5767 -999 -999 -999
2010-04-07 08:29:44 51°13.663 2°55.958 15.5766 -999 -999 -999
2010-04-07 08:29:49 51°13.663 2°55.958 15.5768 -999 -999 -999
2010-04-07 08:29:54 51°13.663 2°55.958 15.577 -999 -999 -999
2010-04-07 08:29:59 51°13.663 2°55.959 15.5769 -999 -999 -999
2010-04-07 08:30:04 51°13.663 2°55.959 15.5772 -999 -999 -999
2010-04-07 08:30:09 51°13.663 2°55.959 15.5773 -999 -999 -999
2010-04-07 08:30:14 51°13.663 2°55.958 15.5772 -999 -999 -999
2010-04-07 08:30:19 51°13.663 2°55.958 15.5776 -999 -999 -999
2010-04-07 08:30:24 51°13.663 2°55.958 15.5775 -999 -999 -999
2010-04-07 08:30:29 51°13.663 2°55.958 15.5776 -999 -999 -999
2010-04-07 08:30:34 51°13.663 2°55.958 15.5775 -999 -999 -999
2010-04-07 08:30:39 51°13.664 2°55.958 15.5779 -999 -999 -999
2010-04-07 08:30:44 51°13.664 2°55.958 15.5777 -999 -999 -999
2010-04-07 08:30:49 51°13.664 2°55.957 15.5781 -999 -999 -999
2010-04-07 08:30:54 51°13.665 2°55.957 15.5781 -999 -999 -999
2010-04-07 08:30:59 51°13.665 2°55.957 15.5781 -999 -999 -999
2010-04-07 08:31:05 51°13.665 2°55.956 15.5784 -999 -999 -999
2010-04-07 08:31:09 51°13.665 2°55.956 15.5784 -999 -999 -999
2010-04-07 08:31:14 51°13.665 2°55.956 15.5786 -999 -999 -999
2010-04-07 08:31:20 51°13.665 2°55.956 15.5786 -999 -999 -999
2010-04-07 08:31:24 51°13.665 2°55.956 15.5788 -999 -999 -999
2010-04-07 08:31:29 51°13.665 2°55.956 15.5788 -999 -999 -999
2010-04-07 08:31:34 51°13.665 2°55.956 15.5786 -999 -999 -999
2010-04-07 08:31:39 51°13.666 2°55.956 15.5789 -999 -999 -999
2010-04-07 08:31:44 51°13.666 2°55.955 15.5789 -999 -999 -999
2010-04-07 08:31:49 51°13.666 2°55.955 15.5792 -999 -999 -999
2010-04-07 08:31:54 51°13.666 2°55.955 15.5794 -999 -999 -999
2010-04-07 08:31:59 51°13.666 2°55.955 15.5793 -999 -999 -999
2010-04-07 08:32:04 51°13.666 2°55.955 15.5793 -999 -999 -999
2010-04-07 08:32:09 51°13.667 2°55.956 15.5796 -999 -999 -999
2010-04-07 08:32:14 51°13.668 2°55.958 15.5799 -999 -999 -999
2010-04-07 08:32:19 51°13.668 2°55.959 15.58 -999 -999 -999
2010-04-07 08:32:24 51°13.668 2°55.959 15.5801 -999 -999 -999
2010-04-07 08:32:29 51°13.669 2°55.959 15.5799 -999 -999 -999
2010-04-07 08:32:34 51°13.669 2°55.959 15.58 -999 -999 -999
2010-04-07 08:32:39 51°13.67 2°55.959 15.5801 -999 -999 -999
2010-04-07 08:32:44 51°13.67 2°55.959 15.5802 -999 -999 -999
2010-04-07 08:32:49 51°13.67 2°55.959 15.5803 -999 -999 -999
2010-04-07 08:32:54 51°13.67 2°55.96 15.5805 -999 -999 -999
2010-04-07 08:32:59 51°13.671 2°55.96 15.5802 -999 -999 -999
2010-04-07 08:33:04 51°13.671 2°55.959 15.5803 -999 -999 -999
2010-04-07 08:33:09 51°13.671 2°55.959 15.5808 -999 -999 -999
2010-04-07 08:33:14 51°13.671 2°55.959 15.5808 -999 -999 -999
2010-04-07 08:33:19 51°13.671 2°55.959 15.5808 -999 -999 -999
2010-04-07 08:33:24 51°13.671 2°55.959 15.5811 -999 -999 -999
2010-04-07 08:33:29 51°13.671 2°55.959 15.581 -999 -999 -999
2010-04-07 08:33:34 51°13.67 2°55.96 15.5811 -999 -999 -999
2010-04-07 08:33:39 51°13.67 2°55.96 15.5814 -999 -999 -999
2010-04-07 08:33:44 51°13.67 2°55.959 15.5815 -999 -999 -999
2010-04-07 08:33:49 51°13.67 2°55.959 15.5816 -999 -999 -999
2010-04-07 08:33:54 51°13.67 2°55.959 15.5817 -999 -999 -999
2010-04-07 08:33:59 51°13.67 2°55.959 15.5815 -999 -999 -999
2010-04-07 08:34:04 51°13.67 2°55.959 15.5818 -999 -999 -999
2010-04-07 08:34:09 51°13.669 2°55.959 15.582 -999 -999 -999
2010-04-07 08:34:14 51°13.669 2°55.959 15.5821 -999 -999 -999
2010-04-07 08:34:19 51°13.669 2°55.959 15.5824 -999 -999 -999
2010-04-07 08:34:24 51°13.668 2°55.96 15.5824 -999 -999 -999
2010-04-07 08:34:29 51°13.668 2°55.96 15.5827 -999 -999 -999
2010-04-07 08:34:34 51°13.668 2°55.96 15.5828 -999 -999 -999
2010-04-07 08:34:39 51°13.668 2°55.96 15.5826 -999 -999 -999
2010-04-07 08:34:44 51°13.667 2°55.96 15.5828 -999 -999 -999
2010-04-07 08:34:49 51°13.667 2°55.96 15.5833 -999 -999 -999
2010-04-07 08:34:54 51°13.667 2°55.96 15.5833 -999 -999 -999
2010-04-07 08:34:59 51°13.667 2°55.96 15.5834 -999 -999 -999
2010-04-07 08:35:04 51°13.667 2°55.96 15.5834 -999 -999 -999
2010-04-07 08:35:09 51°13.667 2°55.961 15.5838 -999 -999 -999
2010-04-07 08:35:14 51°13.666 2°55.961 15.5836 -999 -999 -999
2010-04-07 08:35:19 51°13.666 2°55.961 15.5839 -999 -999 -999
2010-04-07 08:35:24 51°13.666 2°55.961 15.5839 -999 -999 -999
2010-04-07 08:35:29 51°13.666 2°55.961 15.5841 -999 -999 -999
2010-04-07 08:35:34 51°13.665 2°55.961 15.5843 -999 -999 -999
2010-04-07 08:35:39 51°13.665 2°55.962 15.5845 -999 -999 -999
2010-04-07 08:35:44 51°13.665 2°55.961 15.5847 -999 -999 -999
2010-04-07 08:35:49 51°13.665 2°55.961 15.5849 -999 -999 -999
2010-04-07 08:35:54 51°13.665 2°55.961 15.5849 -999 -999 -999
2010-04-07 08:35:59 51°13.665 2°55.961 15.5851 -999 -999 -999
2010-04-07 08:36:04 51°13.665 2°55.961 15.5852 -999 -999 -999
2010-04-07 08:36:09 51°13.665 2°55.961 15.5852 -999 -999 -999
2010-04-07 08:36:14 51°13.665 2°55.961 15.5854 -999 -999 -999
2010-04-07 08:36:19 51°13.664 2°55.961 15.5854 -999 -999 -999
2010-04-07 08:36:24 51°13.664 2°55.962 15.5861 -999 -999 -999
2010-04-07 08:36:29 51°13.664 2°55.962 15.5858 -999 -999 -999
2010-04-07 08:36:34 51°13.664 2°55.962 15.586 -999 -999 -999
2010-04-07 08:36:39 51°13.664 2°55.962 15.5862 -999 -999 -999
2010-04-07 08:36:44 51°13.664 2°55.962 15.5864 -999 -999 -999
2010-04-07 08:36:49 51°13.664 2°55.961 15.5866 -999 -999 -999
2010-04-07 08:36:54 51°13.664 2°55.961 15.5865 -999 -999 -999
2010-04-07 08:36:59 51°13.665 2°55.961 15.5868 -999 -999 -999
2010-04-07 08:37:04 51°13.665 2°55.961 15.5871 -999 -999 -999
2010-04-07 08:37:09 51°13.665 2°55.961 15.5869 -999 -999 -999
2010-04-07 08:37:14 51°13.665 2°55.961 15.5872 -999 -999 -999
2010-04-07 08:37:19 51°13.665 2°55.961 15.5872 -999 -999 -999
2010-04-07 08:37:24 51°13.665 2°55.961 15.5875 -999 -999 -999
2010-04-07 08:37:29 51°13.665 2°55.961 15.5876 -999 -999 -999
2010-04-07 08:37:34 51°13.665 2°55.961 15.5878 -999 -999 -999
2010-04-07 08:37:39 51°13.665 2°55.961 15.588 -999 -999 -999
2010-04-07 08:37:44 51°13.666 2°55.962 15.5879 -999 -999 -999
2010-04-07 08:37:49 51°13.666 2°55.961 15.5881 -999 -999 -999
2010-04-07 08:37:54 51°13.666 2°55.961 15.5881 -999 -999 -999
2010-04-07 08:37:59 51°13.666 2°55.961 15.5884 -999 -999 -999
2010-04-07 08:38:04 51°13.666 2°55.961 15.5885 -999 -999 -999
2010-04-07 08:38:09 51°13.666 2°55.961 15.5885 -999 -999 -999
2010-04-07 08:38:14 51°13.666 2°55.961 15.5889 -999 -999 -999
2010-04-07 08:38:19 51°13.666 2°55.961 15.5887 -999 -999 -999
2010-04-07 08:38:24 51°13.666 2°55.961 15.589 -999 -999 -999
2010-04-07 08:38:29 51°13.665 2°55.961 15.5892 -999 -999 -999
2010-04-07 08:38:34 51°13.665 2°55.961 15.589 -999 -999 -999
2010-04-07 08:38:39 51°13.665 2°55.961 15.5894 -999 -999 -999
2010-04-07 08:38:44 51°13.665 2°55.962 15.5897 -999 -999 -999
2010-04-07 08:38:49 51°13.666 2°55.961 15.5896 -999 -999 -999
2010-04-07 08:38:54 51°13.666 2°55.961 15.5898 -999 -999 -999
2010-04-07 08:38:59 51°13.666 2°55.961 15.5901 -999 -999 -999
2010-04-07 08:39:04 51°13.665 2°55.96 15.5899 -999 -999 -999
2010-04-07 08:39:09 51°13.665 2°55.961 15.59 -999 -999 -999
2010-04-07 08:39:14 51°13.665 2°55.96 15.5907 -999 -999 -999
2010-04-07 08:39:19 51°13.666 2°55.96 15.5908 -999 -999 -999
2010-04-07 08:39:24 51°13.666 2°55.96 15.5905 -999 -999 -999
2010-04-07 08:39:29 51°13.666 2°55.96 15.5904 -999 -999 -999
2010-04-07 08:39:34 51°13.666 2°55.96 15.5907 -999 -999 -999
2010-04-07 08:39:39 51°13.665 2°55.959 15.5913 -999 -999 -999
2010-04-07 08:39:44 51°13.665 2°55.96 15.5909 -999 -999 -999
2010-04-07 08:39:49 51°13.665 2°55.96 15.5913 -999 -999 -999
2010-04-07 08:39:54 51°13.665 2°55.96 15.5912 -999 -999 -999
2010-04-07 08:39:59 51°13.665 2°55.959 15.5914 -999 -999 -999
2010-04-07 08:40:04 51°13.665 2°55.959 15.5922 -999 -999 -999
2010-04-07 08:40:09 51°13.664 2°55.959 15.5917 -999 -999 -999
2010-04-07 08:40:14 51°13.664 2°55.959 15.592 -999 -999 -999
2010-04-07 08:40:19 51°13.665 2°55.959 15.5923 -999 -999 -999
2010-04-07 08:40:24 51°13.665 2°55.959 15.592 -999 -999 -999
2010-04-07 08:40:29 51°13.665 2°55.959 15.5924 -999 -999 -999
2010-04-07 08:40:34 51°13.664 2°55.96 15.5924 -999 -999 -999
2010-04-07 08:40:39 51°13.664 2°55.96 15.5924 -999 -999 -999
2010-04-07 08:40:44 51°13.664 2°55.96 15.5929 -999 -999 -999
2010-04-07 08:40:49 51°13.664 2°55.96 15.5927 -999 -999 -999
2010-04-07 08:40:54 51°13.664 2°55.959 15.5931 -999 -999 -999
2010-04-07 08:40:59 51°13.664 2°55.959 15.5933 -999 -999 -999
2010-04-07 08:41:04 51°13.664 2°55.959 15.5934 -999 -999 -999
2010-04-07 08:41:09 51°13.664 2°55.959 15.5937 -999 -999 -999
2010-04-07 08:41:14 51°13.664 2°55.96 15.5939 -999 -999 -999
2010-04-07 08:41:19 51°13.664 2°55.959 15.594 -999 -999 -999
2010-04-07 08:41:24 51°13.664 2°55.959 15.5943 -999 -999 -999
2010-04-07 08:41:29 51°13.664 2°55.959 15.5942 -999 -999 -999
2010-04-07 08:41:34 51°13.664 2°55.96 15.5945 -999 -999 -999
2010-04-07 08:41:39 51°13.664 2°55.959 15.5945 -999 -999 -999
2010-04-07 08:41:45 51°13.664 2°55.959 15.5948 -999 -999 -999
2010-04-07 08:41:49 51°13.664 2°55.959 15.5949 -999 -999 -999
2010-04-07 08:41:54 51°13.664 2°55.959 15.5951 -999 -999 -999
2010-04-07 08:41:59 51°13.664 2°55.96 15.595 -999 -999 -999
2010-04-07 08:42:04 51°13.664 2°55.96 15.5953 -999 -999 -999
2010-04-07 08:42:09 51°13.664 2°55.96 15.5953 -999 -999 -999
2010-04-07 08:42:14 51°13.664 2°55.959 15.5955 -999 -999 -999
2010-04-07 08:42:19 51°13.664 2°55.959 15.5954 -999 -999 -999
2010-04-07 08:42:24 51°13.664 2°55.959 15.5959 -999 -999 -999
2010-04-07 08:42:29 51°13.664 2°55.959 15.5961 -999 -999 -999
2010-04-07 08:42:34 51°13.664 2°55.959 15.5961 -999 -999 -999
2010-04-07 08:42:39 51°13.664 2°55.959 15.5961 -999 -999 -999
2010-04-07 08:42:44 51°13.664 2°55.959 15.5963 -999 -999 -999
2010-04-07 08:42:49 51°13.664 2°55.959 15.5967 -999 -999 -999
2010-04-07 08:42:54 51°13.664 2°55.959 15.5964 -999 -999 -999
2010-04-07 08:42:59 51°13.664 2°55.958 15.5966 -999 -999 -999
2010-04-07 08:43:04 51°13.664 2°55.958 15.5967 -999 -999 -999
2010-04-07 08:43:09 51°13.664 2°55.958 15.597 -999 -999 -999
2010-04-07 08:43:14 51°13.664 2°55.958 15.597 -999 -999 -999
2010-04-07 08:43:19 51°13.664 2°55.958 15.5974 -999 -999 -999
2010-04-07 08:43:24 51°13.664 2°55.958 15.5974 -999 -999 -999
2010-04-07 08:43:29 51°13.664 2°55.958 15.5976 -999 -999 -999
2010-04-07 08:43:34 51°13.664 2°55.958 15.5975 -999 -999 -999
2010-04-07 08:43:39 51°13.664 2°55.958 15.5977 -999 -999 -999
2010-04-07 08:43:44 51°13.664 2°55.958 15.5979 -999 -999 -999
2010-04-07 08:43:49 51°13.664 2°55.958 15.5978 -999 -999 -999
2010-04-07 08:43:54 51°13.664 2°55.958 15.5978 -999 -999 -999
2010-04-07 08:43:59 51°13.664 2°55.958 15.5978 -999 -999 -999
2010-04-07 08:44:04 51°13.664 2°55.958 15.5984 -999 -999 -999
2010-04-07 08:44:09 51°13.664 2°55.958 15.5984 -999 -999 -999
2010-04-07 08:44:14 51°13.664 2°55.959 15.5984 -999 -999 -999
2010-04-07 08:44:19 51°13.664 2°55.958 15.5986 -999 -999 -999
2010-04-07 08:44:24 51°13.664 2°55.958 15.5986 -999 -999 -999
2010-04-07 08:44:29 51°13.664 2°55.958 15.5988 -999 -999 -999
2010-04-07 08:44:34 51°13.664 2°55.958 15.5989 -999 -999 -999
2010-04-07 08:44:40 51°13.663 2°55.958 15.5988 -999 -999 -999
2010-04-07 08:44:44 51°13.663 2°55.958 15.5992 -999 -999 -999
2010-04-07 08:44:49 51°13.663 2°55.958 15.5995 -999 -999 -999
2010-04-07 08:44:54 51°13.663 2°55.957 15.5995 -999 -999 -999
2010-04-07 08:44:59 51°13.663 2°55.958 15.5997 -999 -999 -999
2010-04-07 08:45:04 51°13.663 2°55.958 15.5996 -999 -999 -999
2010-04-07 08:45:09 51°13.663 2°55.957 15.5997 -999 -999 -999
2010-04-07 08:45:14 51°13.662 2°55.958 15.6001 -999 -999 -999
2010-04-07 08:45:19 51°13.662 2°55.958 15.6005 -999 -999 -999
2010-04-07 08:45:24 51°13.662 2°55.958 15.5999 -999 -999 -999
2010-04-07 08:45:29 51°13.662 2°55.958 15.6001 -999 -999 -999
2010-04-07 08:45:34 51°13.662 2°55.958 15.6005 -999 -999 -999
2010-04-07 08:45:39 51°13.662 2°55.958 15.6006 -999 -999 -999
2010-04-07 08:45:44 51°13.662 2°55.958 15.6006 -999 -999 -999
2010-04-07 08:45:49 51°13.662 2°55.959 15.6006 -999 -999 -999
2010-04-07 08:45:54 51°13.662 2°55.958 15.601 -999 -999 -999
2010-04-07 08:45:59 51°13.662 2°55.958 15.601 -999 -999 -999
2010-04-07 08:46:04 51°13.662 2°55.958 15.601 -999 -999 -999
2010-04-07 08:46:09 51°13.662 2°55.959 15.6012 -999 -999 -999
2010-04-07 08:46:14 51°13.662 2°55.958 15.6011 -999 -999 -999
2010-04-07 08:46:19 51°13.662 2°55.959 15.6015 -999 -999 -999
2010-04-07 08:46:24 51°13.662 2°55.958 15.6017 -999 -999 -999
2010-04-07 08:46:29 51°13.662 2°55.959 15.6017 -999 -999 -999
2010-04-07 08:46:34 51°13.662 2°55.959 15.6019 -999 -999 -999
2010-04-07 08:46:39 51°13.662 2°55.959 15.6019 -999 -999 -999
2010-04-07 08:46:44 51°13.662 2°55.959 15.6018 -999 -999 -999
2010-04-07 08:46:49 51°13.662 2°55.959 15.602 -999 -999 -999
2010-04-07 08:46:54 51°13.662 2°55.959 15.6021 -999 -999 -999
2010-04-07 08:46:59 51°13.662 2°55.958 15.6025 -999 -999 -999
2010-04-07 08:47:04 51°13.662 2°55.958 15.6025 -999 -999 -999
2010-04-07 08:47:09 51°13.662 2°55.958 15.6026 -999 -999 -999
2010-04-07 08:47:14 51°13.662 2°55.958 15.603 -999 -999 -999
2010-04-07 08:47:19 51°13.662 2°55.958 15.6028 -999 -999 -999
2010-04-07 08:47:24 51°13.662 2°55.959 15.6032 -999 -999 -999
2010-04-07 08:47:29 51°13.662 2°55.959 15.6031 -999 -999 -999
2010-04-07 08:47:34 51°13.662 2°55.959 15.6029 -999 -999 -999